[[{"header":{"parameterUnit":"m.s-1","parameterCategory":1,"la1":30.2991,"la2":30.254,"lo1":-89.0895,"lo2":-89.0444,"dy":0.0017,"dx":0.0017,"nx":28,"ny":28,"refTime":"2025-01-25T09:00:00:Z","depth":0,"parameterNumber":2,"parameterNumberName":"U-component_of_WINDS"},"data":[0,0,0,0,0,0,0,0,0,0,0,0,0,0,0,0,0,0,0,0,0,0,0,0,0,0,0,0,0,0,0,0,0,0,0,0,0,0,0,0,0,0,0,0,0,0,0,0,0,0,0,0,0,0,0,0,0,0,-2.7689,-2.769,0,-2.7778,-2.7779,-2.778,-2.7783,-2.7782,-2.7781,-2.778,-2.7872,-2.7876,-2.7879,0,0,0,0,0,0,0,0,0,0,0,0,0,-2.7522,-2.7525,-2.7689,-2.769,-2.7691,-2.7778,-2.7779,-2.778,-2.7784,-2.7782,-2.7781,-2.778,-2.7871,-2.7875,-2.788,0,0,0,0,0,0,0,0,0,0,0,0,0,-2.7601,-2.7526,-2.7689,-2.7703,-2.7705,-2.7778,-2.7779,-2.7781,-2.7784,-2.7782,-2.7781,-2.7779,-2.787,-2.7875,-2.788,-2.7944,0,0,-2.7896,-2.7898,0,0,0,0,0,0,0,0,-2.7597,-2.7608,-2.77,-2.7702,-2.7705,-2.7768,-2.7754,-2.7835,-2.7784,-2.7754,-2.778,-2.7778,-2.7839,-2.7847,-2.7867,-2.7948,-2.7952,-2.7896,-2.79,-2.7902,-2.7903,0,0,0,0,0,0,0,-2.7591,-2.7604,-2.7724,-2.7701,-2.7704,-2.7706,-2.7715,-2.777,-2.7805,-2.7757,-2.7757,-2.7768,-2.784,-2.7862,-2.7869,-2.7954,-2.7896,-2.7901,-2.7904,-2.7906,-2.8092,-2.8094,0,0,0,0,0,0,-2.7583,-2.7599,-2.7721,-2.7727,-2.7646,-2.771,-2.772,-2.7749,-2.7804,-2.7811,-2.7769,-2.7767,-2.7854,-2.7863,-2.7872,-2.795,-2.7902,-2.7907,-2.791,-2.809,-2.8092,-2.8094,0,0,0,0,0,0,-2.7579,-2.7594,-2.7718,-2.7663,-2.7679,-2.7714,-2.7747,-2.7752,-2.7774,-2.7813,-2.7819,-2.7785,-2.7853,-2.7865,-2.7926,-2.7953,-2.7909,-2.7914,-2.8088,-2.8091,-2.8093,-2.8107,0,0,0,0,0,0,-2.7575,-2.7593,-2.7617,-2.7664,-2.7682,-2.777,-2.7749,-2.7755,-2.7783,-2.7781,-2.783,-2.7836,-2.7853,-2.7918,-2.7931,-2.796,-2.7918,-2.8086,-2.8089,-2.8092,-2.8104,-2.811,-2.8114,0,0,0,0,0,-2.7569,-2.7618,-2.7618,-2.7633,-2.7713,-2.7771,-2.7782,-2.7799,-2.7785,-2.781,-2.7835,-2.7835,-2.7949,-2.7925,-2.7939,-2.797,-2.8084,-2.8088,-2.8092,-2.8102,-2.8109,-2.8114,0,0,0,0,0,0,-2.7574,-2.7624,-2.7625,-2.7691,-2.7727,-2.7772,-2.7804,-2.7806,-2.7847,-2.7845,-2.7865,-2.7876,-2.7937,-2.796,-2.7932,-2.8034,-2.8015,-2.8022,-2.8017,-2.8024,-2.8029,-2.8022,-2.7922,0,0,0,0,0,-2.7582,-2.7625,-2.7667,-2.7721,-2.7738,-2.7768,-2.7794,-2.7805,-2.7843,-2.7858,-2.7888,-2.7925,-2.7969,-2.7998,-2.8041,-2.8108,-2.8118,-2.8136,-2.8141,-2.8145,-2.8151,-2.8187,-2.8196,-2.8108,-2.8108,-2.8108,0,0,-2.7601,-2.7634,-2.7659,-2.7722,-2.7751,-2.7795,-2.7781,-2.7828,-2.786,-2.7865,-2.7924,-2.7948,-2.7991,-2.8055,-2.8084,-2.8075,-2.8178,-2.8151,-2.8153,-2.8157,-2.8192,-2.8201,-2.8208,-2.8111,-2.811,-2.811,0,0,-2.7656,-2.7686,-2.7733,-2.7763,-2.7807,-2.7826,-2.7837,-2.7882,-2.7898,-2.7957,-2.7962,-2.8001,-2.8077,-2.8107,-2.8133,-2.82,-2.8201,-2.8214,-2.824,-2.8276,-2.8282,-2.8289,-2.8312,-2.832,-2.8219,-2.8219,-2.8219,0,-2.7674,-2.7739,-2.7758,-2.7804,-2.7832,-2.7838,-2.7886,-2.7914,-2.797,-2.7989,-2.7979,-2.8074,-2.8103,-2.8174,-2.819,-2.8211,-2.8224,-2.8207,-2.828,-2.8286,-2.8292,-2.8315,-2.8323,-2.822,-2.822,-2.822,-2.822,0,-2.7758,-2.7804,-2.7837,-2.789,-2.7922,-2.7969,-2.7994,-2.8024,-2.8032,-2.8053,-2.8113,-2.8149,-2.8199,-2.8217,-2.8225,-2.8289,-2.8282,-2.8276,-2.8256,-2.8302,-2.8323,-2.8332,-2.8222,-2.8222,-2.8221,-2.8221,0,0,-2.7819,-2.7881,-2.7893,-2.7917,-2.7966,-2.8002,-2.805,-2.8098,-2.8123,-2.8162,-2.8202,-2.8266,-2.826,-2.8289,-2.8301,-2.8332,-2.8382,-2.8322,-2.8324,-2.8331,-2.8453,-2.8457,-2.8467,-2.8384,-2.8385,-2.8387,-2.8449,0,-2.7879,-2.7963,-2.7981,-2.8054,-2.8096,-2.8103,-2.8144,-2.8179,-2.82,-2.8239,-2.8262,-2.8306,-2.8296,-2.8313,-2.8344,-2.837,-2.8407,-2.8365,-2.8421,-2.8423,-2.8409,-2.8478,-2.8482,-2.8539,-2.8458,-2.8459,-2.8461,0,-2.7961,-2.8,-2.8077,-2.812,-2.8138,-2.8175,-2.8221,-2.8258,-2.8298,-2.8311,-2.8343,-2.8351,-2.8401,-2.838,-2.8449,-2.8421,-2.8445,-2.8461,-2.8463,-2.8468,-2.8443,-2.8484,-2.8558,-2.8566,-2.8474,-2.8473,-2.8472,0,-2.7996,-2.8069,-2.8124,-2.8144,-2.8196,-2.8222,-2.8245,-2.8283,-2.8311,-2.8351,-2.8369,-2.8415,-2.844,-2.8475,-2.8496,-2.8479,-2.8563,-2.8544,-2.8575,-2.8574,-2.8591,-2.8589,-2.8669,-2.8609,-2.8608,-2.8608,-2.8608,0,-2.806,-2.8107,-2.814,-2.8174,-2.8226,-2.8247,-2.8298,-2.8321,-2.8355,-2.8393,-2.8402,-2.8438,-2.8464,-2.8504,-2.8521,-2.8575,-2.8587,-2.8598,-2.8602,-2.8597,-2.8595,-2.8612,-2.8608,-2.8611,-2.861,-2.861,-2.8609,0,-2.8108,-2.8132,-2.8193,-2.8237,-2.8249,-2.8285,-2.8323,-2.8356,-2.8377,-2.8426,-2.8439,-2.8471,-2.8518,-2.8543,-2.8603,-2.8614,-2.8674,-2.8676,-2.866,-2.8662,-2.8691,-2.8687,-2.8783,-2.8797,-2.8728,-2.8728,-2.8729,0,-2.8147,-2.8183,-2.8231,-2.8257,-2.828,-2.8322,-2.835,-2.8372,-2.8401,-2.8449,-2.8476,-2.8524,-2.8563,-2.8638,-2.8667,-2.8713,-2.8715,-2.8746,-2.8722,-2.8715,-2.8714,-2.8711,-2.8715,-2.8749,-2.875,-2.8751,-2.8751,0,-2.8214,-2.8224,-2.8264,-2.8308,-2.8341,-2.8378,-2.8413,-2.8434,-2.8462,-2.8494,-2.8542,-2.8572,-2.8633,-2.868,-2.8727,-2.8751,-2.8756,-2.8759,-2.8768,-2.8762,-2.8751,-2.8756,-2.8671,-2.8756,-2.8755,-2.8755,-2.8755,-2.8755,-2.8258,-2.829,-2.8328,-2.8372,-2.8401,-2.8434,-2.8467,-2.8492,-2.8532,-2.8582,-2.8593,-2.8643,-2.8682,-2.8746,-2.8772,-2.8812,-2.8805,-2.8819,-2.8822,-2.8825,-2.8826,-2.8746,-2.8821,-2.8821,-2.882,-2.882,-2.882,0,-2.8324,-2.8349,-2.8389,-2.8438,-2.8473,-2.8474,-2.8514,-2.8543,-2.8587,-2.8622,-2.8661,-2.8716,-2.8761,-2.8794,-2.8841,-2.8866,-2.887,-2.8878,-2.8876,-2.8881,-2.8829,-2.8816,-2.8874,-2.8874,-2.8874,-2.8874,-2.8874,-2.8874,-2.8362,-2.8416,-2.843,-2.8498,-2.8523,-2.8572,-2.8594,-2.8625,-2.8653,-2.8714,-2.8752,-2.8773,-2.8807,-2.8856,-2.8898,-2.8907,-2.8923,-2.8931,-2.8939,-2.889,-2.8885,-2.8879,-2.8867,-2.8934,-2.8934,-2.8987,-2.8988,-2.8988]},{"header":{"parameterUnit":"m.s-1","parameterCategory":1,"la1":30.2991,"la2":30.254,"lo1":-89.0895,"lo2":-89.0444,"dy":0.0017,"dx":0.0017,"nx":28,"ny":28,"refTime":"2025-01-25T09:00:00:Z","depth":0,"parameterNumber":3,"parameterNumberName":"V-component_of_WINDS"},"data":[0,0,0,0,0,0,0,0,0,0,0,0,0,0,0,0,0,0,0,0,0,0,0,0,0,0,0,0,0,0,0,0,0,0,0,0,0,0,0,0,0,0,0,0,0,0,0,0,0,0,0,0,0,0,0,0,0,0,1.7107,1.7108,0,1.7193,1.7194,1.7195,1.7228,1.7228,1.7228,1.7227,1.7314,1.7317,1.7319,0,0,0,0,0,0,0,0,0,0,0,0,0,1.697,1.6973,1.7107,1.7108,1.7109,1.7193,1.7194,1.7195,1.7228,1.7228,1.7228,1.7227,1.7313,1.7316,1.7319,0,0,0,0,0,0,0,0,0,0,0,0,0,1.704,1.6973,1.7106,1.7135,1.7139,1.7193,1.7194,1.7196,1.7228,1.7228,1.7228,1.7227,1.7312,1.7316,1.732,1.735,0,0,1.7331,1.7333,0,0,0,0,0,0,0,0,1.7036,1.7045,1.713,1.7134,1.7138,1.72,1.7178,1.7247,1.7228,1.7194,1.7227,1.7227,1.7276,1.7283,1.73,1.7355,1.7358,1.7332,1.7334,1.7336,1.7337,0,0,0,0,0,0,0,1.7031,1.7042,1.7141,1.7131,1.7136,1.7144,1.7154,1.7191,1.7236,1.7197,1.72,1.721,1.7278,1.7296,1.7302,1.736,1.7332,1.7335,1.7337,1.7339,1.7446,1.7446,0,0,0,0,0,0,1.7022,1.7037,1.7138,1.7143,1.7085,1.7147,1.7158,1.718,1.7236,1.7244,1.721,1.7211,1.729,1.7298,1.7305,1.7347,1.7336,1.7339,1.7341,1.7445,1.7446,1.7447,0,0,0,0,0,0,1.7019,1.703,1.7135,1.7091,1.7105,1.715,1.7174,1.7182,1.72,1.7246,1.7254,1.722,1.729,1.73,1.734,1.735,1.7341,1.7344,1.7445,1.7446,1.7446,1.7428,0,0,0,0,0,0,1.7015,1.7029,1.7041,1.7091,1.7107,1.7167,1.7175,1.7184,1.7207,1.7209,1.7257,1.7265,1.729,1.7334,1.7343,1.7355,1.7347,1.7444,1.7445,1.7446,1.7428,1.7428,1.7429,0,0,0,0,0,1.701,1.7032,1.7042,1.7053,1.7123,1.7168,1.7177,1.7206,1.7207,1.722,1.725,1.7263,1.7347,1.7338,1.7349,1.7362,1.7443,1.7445,1.7446,1.7428,1.7428,1.7429,0,0,0,0,0,0,1.6981,1.7039,1.705,1.7089,1.7124,1.7173,1.719,1.7206,1.724,1.724,1.7275,1.7285,1.7323,1.7346,1.7334,1.7395,1.7396,1.74,1.7379,1.738,1.738,1.7374,1.735,0,0,0,0,0,1.6979,1.7011,1.7059,1.7089,1.7106,1.7145,1.7165,1.7185,1.7222,1.7237,1.7269,1.7304,1.7338,1.736,1.7394,1.7432,1.7443,1.7446,1.7446,1.7446,1.7449,1.7473,1.7475,1.7451,1.7451,1.7451,0,0,1.6975,1.7011,1.7029,1.7084,1.7113,1.7146,1.7157,1.719,1.7215,1.7241,1.7282,1.7307,1.7348,1.7387,1.7406,1.7407,1.7458,1.7448,1.7447,1.745,1.7474,1.7476,1.7478,1.7452,1.7452,1.7451,0,0,1.6986,1.7015,1.7044,1.7074,1.7118,1.7144,1.7151,1.7199,1.7217,1.7258,1.728,1.7309,1.7367,1.7396,1.7418,1.7442,1.7456,1.7452,1.7453,1.7476,1.7478,1.748,1.7489,1.7492,1.7454,1.7454,1.7454,0,1.6976,1.7025,1.7057,1.709,1.7114,1.7141,1.7171,1.7198,1.725,1.7267,1.7268,1.7343,1.7372,1.742,1.7426,1.7442,1.7452,1.7447,1.7475,1.7477,1.7479,1.7489,1.7493,1.7454,1.7454,1.7454,1.7454,0,1.7012,1.7046,1.7064,1.7116,1.7142,1.7173,1.721,1.7233,1.7251,1.7277,1.7319,1.7355,1.7398,1.7411,1.7428,1.7461,1.7461,1.7468,1.747,1.748,1.749,1.7494,1.7453,1.7453,1.7453,1.7453,0,0,1.7005,1.7075,1.7082,1.7106,1.7158,1.7185,1.7218,1.7261,1.728,1.7316,1.7345,1.7395,1.7402,1.7427,1.7448,1.7468,1.7486,1.7473,1.7474,1.7475,1.7527,1.7522,1.7526,1.7496,1.7497,1.7498,1.7524,0,1.7023,1.7084,1.7114,1.7162,1.7195,1.7222,1.7251,1.7285,1.7311,1.7343,1.7371,1.7406,1.7413,1.7429,1.7449,1.748,1.7497,1.7478,1.7524,1.7525,1.7514,1.7531,1.7526,1.7549,1.7528,1.7529,1.7529,0,1.7052,1.7089,1.714,1.719,1.7205,1.723,1.7273,1.7303,1.7344,1.7361,1.7391,1.7412,1.7448,1.7447,1.7498,1.7484,1.7505,1.7523,1.7524,1.753,1.7528,1.7539,1.7557,1.7561,1.7535,1.7535,1.7534,0,1.7044,1.7106,1.7146,1.7166,1.7224,1.7242,1.7267,1.7308,1.7332,1.7369,1.7386,1.7427,1.7449,1.748,1.7512,1.7508,1.756,1.7561,1.7576,1.7576,1.7587,1.7586,1.761,1.7598,1.7598,1.7598,1.7598,0,1.7061,1.7092,1.7143,1.7167,1.7203,1.7238,1.7272,1.7299,1.7335,1.7366,1.7391,1.7419,1.7458,1.7492,1.7516,1.7556,1.7565,1.7581,1.7587,1.7579,1.7578,1.7594,1.7594,1.7599,1.7599,1.7598,1.7598,0,1.7058,1.7094,1.7139,1.7191,1.7205,1.7229,1.7274,1.7299,1.7327,1.7365,1.7376,1.7419,1.746,1.7494,1.7547,1.7564,1.7605,1.7612,1.7592,1.7595,1.7609,1.7608,1.7645,1.7653,1.7635,1.7635,1.7635,0,1.7067,1.7092,1.7147,1.717,1.7195,1.7231,1.7257,1.7293,1.7319,1.7368,1.7387,1.743,1.7466,1.7529,1.7565,1.7606,1.7615,1.7626,1.7622,1.7614,1.7617,1.7616,1.7619,1.7626,1.7626,1.7626,1.7626,0,1.708,1.7097,1.7133,1.7177,1.7207,1.7243,1.7279,1.7296,1.7339,1.7367,1.7409,1.7437,1.7493,1.7535,1.758,1.7606,1.7624,1.7627,1.7633,1.7626,1.7614,1.7622,1.7594,1.7626,1.7626,1.7626,1.7626,1.7626,1.7084,1.7108,1.7152,1.7192,1.7224,1.7258,1.7284,1.7316,1.7352,1.7401,1.742,1.7463,1.7505,1.7568,1.7595,1.763,1.7632,1.764,1.7643,1.7644,1.7644,1.7607,1.7638,1.7638,1.7638,1.7638,1.7638,0,1.7099,1.713,1.7166,1.7217,1.725,1.7264,1.7306,1.7332,1.737,1.7408,1.7444,1.7494,1.7535,1.7576,1.762,1.764,1.7649,1.765,1.765,1.7656,1.7638,1.763,1.7642,1.7642,1.7642,1.7642,1.7642,1.7642,1.7111,1.7153,1.7176,1.7234,1.7264,1.7308,1.7331,1.7362,1.7393,1.7448,1.7483,1.751,1.7549,1.7597,1.7636,1.7647,1.7662,1.7662,1.7675,1.7658,1.7657,1.7656,1.7648,1.7664,1.7664,1.769,1.769,1.769]}]]